This is the latest recevied weather packets stored in our database for station/object AB1AU. If no packets are shown the sender has not sent any weather packets the latest 10 day(s).
| Time | Temp. | Humidity | Pressure | Rain* | Wind** | Luminosity | Snow |
|---|---|---|---|---|---|---|---|
| 1787848555 | 26.67° C | 61% | 1017.8 hPa | 0 mm | - | 26 W/m² | - |
| 1787848254 | 26.11° C | 61% | 1018.1 hPa | 0 mm | - | 36 W/m² | - |
| 1787847950 | 26.11° C | 63% | 1018.1 hPa | 0 mm | - | 49 W/m² | - |
| 1787847649 | 26.11° C | 61% | 1018 hPa | 0 mm | - | 132 W/m² | - |
| 1787847345 | 26.11° C | 63% | 1018.3 hPa | 0 mm | - | 36 W/m² | - |
| 1787847041 | 26.11° C | 66% | 1018.1 hPa | 0 mm | - | 38 W/m² | - |
| 1787846736 | 25.56° C | 68% | 1018.5 hPa | 0 mm | - | 57 W/m² | - |
| 1787846431 | 25° C | 69% | 1018.4 hPa | 0 mm | - | 54 W/m² | - |
| 1787846127 | 25.56° C | 68% | 1018.5 hPa | 0 mm | - | 54 W/m² | - |
| 1787845822 | 25° C | 69% | 1018.5 hPa | 0 mm | - | 38 W/m² | - |
| 1787845518 | 24.44° C | 71% | 1018.7 hPa | 0 mm | - | 28 W/m² | - |
| 1787845213 | 24.44° C | 71% | 1018.8 hPa | 0 mm | - | 39 W/m² | - |
| 1787844911 | 24.44° C | 72% | 1018.7 hPa | 0 mm | - | 28 W/m² | - |
| 1787844608 | 24.44° C | 71% | 1018.8 hPa | 0 mm | - | 30 W/m² | - |
| 1787844303 | 24.44° C | 72% | 1018.8 hPa | 0 mm | - | 27 W/m² | - |
| 1787844002 | 23.89° C | 74% | 1018.9 hPa | 0 mm | - | 27 W/m² | - |
| 1787843697 | 23.89° C | 74% | 1018.8 hPa | 0 mm | - | 65 W/m² | - |
| 1787843393 | 23.89° C | 74% | 1019 hPa | 0 mm | - | 29 W/m² | - |
| 1787843090 | 23.89° C | 76% | 1019 hPa | 0 mm | - | 31 W/m² | - |
| 1787842788 | 23.33° C | 76% | 1019 hPa | 0 mm | - | 34 W/m² | - |
| 1787842484 | 22.78° C | 78% | 1019 hPa | 0 mm | - | 43 W/m² | - |
| 1787842178 | 22.78° C | 77% | 1019.1 hPa | 0 mm | - | 50 W/m² | - |
| 1787841878 | 22.78° C | 78% | 1019.1 hPa | 0 mm | - | 45 W/m² | - |
| 1787841575 | 22.78° C | 78% | 1019.2 hPa | 0 mm | - | 58 W/m² | - |
| 1787841272 | 22.22° C | 79% | 1019 hPa | 0 mm | - | 76 W/m² | - |
* Rain latest hour (hover to see other rain measurements)
** Current wind speed in m/s (hover to see current wind gust speed)